Location: Alsip
(41.6689°N, 87.7387°W)
Time: 20:31:14
(UTC+00:00)

Cosmos 1048 Rocket - Pass Details

Date: 27 October 2020
Orbit: 743 x 792 km, 74.0° (Epoch: 03 December)

Event Time Altitude Azimuth Distance (km) Brightness Sun altitude
Exits shadow 10:20:05 13° 339° (NNW) 2,144 6.1 -22.5°
Drops below altitude 10° 10:21:01 10° 347° (NNW) 2,353 6.4 -22.3°
Sets 10:24:14 0° 7° (N) 3,293 7.4 -21.7°
